Helicity
44 32 177 158 178 287 212 272 248 292 317 276 336 316 293 281 246 227 200 164 162 155
48 101 11 232 156 222 241 286 268 297 321 339 318 326 291 280 245 222 205 166 162 171
61 111 97 126 119 181 180 224 291 281 312 341 327 311 321 296 255 240 218 211 205 213
-72 -68 141 204 219 151 208 253 232 252 268 277 305 366 334 276 250 220 223 236 215 209
3 0 105 80 120 189 257 249 252 245 225 246 290 298 290 263 230 216 219 218 242 253
82 200 152 150 245 266 246 248 254 255 221 229 221 241 231 228 234 220 220 230 244 268
10 224 386 388 293 181 211 248 235 221 241 228 219 229 243 230 218 194 221 237 251 253
1 51 187 170 197 211 217 183 200 216 221 243 239 254 245 216 207 236 281 299 260 245
70 134 161 139 190 188 330 310 257 208 255 247 236 220 247 274 257 297 272 257 302 250
46 59 68 123 109 67 118 235 266 260 248 269 241 201 279 277 253 291 349 324 343 295
92 65 76 67 53 74 76 65 69 115 210 275 192 181 319 215 209 264 371 308 237 398
52 72 66 58 65 40 40 8 9 9 50 74 80 81 130 210 210 199 233 257 248 175
31 39 59 69 83 85 80 71 103 118 111 59 65 69 91 125 142 123 142 157 174 198
32 22 16 26 31 41 55 71 90 102 103 95 102 118 126 126 191 210 254 271 265 229
Wind_Speed
69 79 67 57 54 68 74 78 75 72 67 64 58 54 52 52 51 47 45 42 41 39
80 64 40 53 63 70 75 75 71 68 67 65 60 55 54 52 51 48 49 48 44 45
75 60 47 47 64 67 70 72 67 67 66 66 62 58 54 53 52 49 49 48 46 43
78 73 65 72 62 65 64 63 62 62 64 64 63 58 55 53 51 50 49 48 47 45
68 80 75 78 65 60 59 50 51 56 55 55 54 54 54 52 52 51 51 50 49 48
31 38 45 59 56 54 53 51 51 51 50 51 54 53 53 55 55 56 54 53 50 46
20 16 6 18 37 43 46 50 49 49 51 50 51 53 53 52 55 55 55 53 50 45
20 9 5 1 28 44 45 44 46 43 45 48 53 53 51 53 54 53 53 53 49 47
18 9 10 8 10 16 31 39 39 39 41 43 49 48 48 47 47 45 46 46 51 47
5 8 9 8 10 13 10 30 38 38 39 38 42 40 41 44 45 49 43 50 49 50
12 11 11 11 12 13 15 15 16 20 24 31 36 34 39 43 41 47 40 41 40 42
12 22 28 31 31 30 25 22 16 13 12 13 19 22 36 32 35 36 38 29 25 20
33 33 33 34 34 32 30 28 27 27 28 21 15 15 19 20 19 21 30 28 29 32
31 35 36 38 39 36 35 37 38 39 38 36 34 38 40 41 42 46 44 47 42 44
Wind_Direction
223 227 230 233 234 212 213 213 212 217 219 223 224 225 225 229 231 233 236 237 245 251
218 228 225 227 222 215 217 216 216 219 221 227 225 226 227 231 232 235 240 245 248 253
221 233 234 222 223 220 219 220 220 223 226 228 230 229 226 234 236 237 242 246 248 253
215 225 236 227 232 221 221 221 223 227 231 232 232 229 227 234 236 237 242 246 248 253
226 225 236 232 237 225 218 221 225 226 228 228 228 226 230 232 238 240 242 245 249 254
274 259 243 240 227 215 216 222 226 226 227 229 233 233 235 241 244 246 247 249 251 253
358 330 218 217 208 207 220 226 228 228 231 235 236 238 240 243 248 250 251 252 253 253
16 9 32 317 233 230 229 232 235 234 237 239 241 243 245 248 249 249 251 252 254 256
1 316 263 275 306 265 231 238 241 243 243 244 248 246 243 246 246 245 247 247 257 260
342 19 15 335 317 327 301 254 259 260 251 249 254 244 239 242 247 253 251 257 258 263
355 358 343 335 333 322 304 293 301 284 272 263 270 260 248 246 254 257 261 256 261 258
321 345 359 12 15 15 34 45 15 21 5 316 291 284 268 263 265 262 261 255 245 240
347 346 339 334 335 339 342 338 329 323 310 298 304 286 273 268 267 254 266 265 260 259
315 321 320 319 329 339 335 323 313 308 304 302 298 292 285 274 269 266 263 264 262 261